User: anonymous   Login
Location: Esp�n
(42.4593°N, 0.2047°W)
Time: 11:24:53
(UTC+00:00)
Language:

Cosmos 2322 Rocket - Orbit

View from above orbital plane
View from above orbital plane
View from above satellite
View from above satellite

Ground track
Ground track

The orbit data is extracted from the following two-line orbital elements,

1 23705U 95058B   20226.91355891 +.00000239 +00000-0 +14762-3 0  9994
2 23705 071.0226 128.3964 0013359 331.1538 028.8844 14.15135065280101
Epoch (UTC): 13 August 2020 21:55:31
Eccentricity: 0.0013359
inclination: 71.0226°
perigee height: 832 km
apogee height: 851 km
right ascension of ascending node: 128.3964°
argument of perigee: 331.1538°
revolutions per day: 14.15135065
mean anomaly at epoch: 28.8844°
orbit number at epoch: 28010

The dashed part of the orbit path shows where the satellite is in the earth's shadow,  

DLR